User: anonymous   Login
Location: Caltech
(34.1382°N, 118.1253°W)
Time: 09:23:20
(UTC-07:00)
Language:

Cosmos 1833 Rocket - Orbit

View from above orbital plane
View from above orbital plane
View from above satellite
View from above satellite

Ground track
Ground track

The orbit data is extracted from the following two-line orbital elements,

1 17590U 87027B   17172.57930641 +.00000112 +00000-0 +79990-4 0  9991
2 17590 071.0023 140.7269 0007162 288.7205 071.3141 14.16745176564514
Epoch (UTC): 21 June 2017 13:54:12
Eccentricity: 0.0007162
inclination: 71.0023°
perigee height: 831 km
apogee height: 841 km
right ascension of ascending node: 140.7269°
argument of perigee: 288.7205°
revolutions per day: 14.16745176
mean anomaly at epoch: 71.3141°
orbit number at epoch: 56451

The dashed part of the orbit path shows where the satellite is in the earth's shadow,  

DLR